Torna al catalogo

SUPERVIEW NEO 3-02

AttivoScienzaSSO
NORAD 63208·PAYLOAD·🇨🇳 China

Lanciato Mar 15, 2025 da Jiuquan Satellite Launch Center

Loading…

Prossimi Passaggi (prossime 24 ore)

TLE

AggiornatoSource: Space-Track

Epoca: Sep 14, 2026, 13:17 UTC

1 63208U 25051A   26257.55384012  .00006290  00000-0  27878-3 0  9994
2 63208  97.4455 335.9706 0001390 131.5461 228.5895 15.21967208 83430

Traccia SUPERVIEW NEO 3-02 in tempo reale con AllMySat

Download on the App Store